Location: Rowland
(34.5359°N, 79.2929°W)
Time: 20:35:39
(UTC+00:00)

A-11 Canister half - Pass Details

Date: 03 October 2022
Orbit: 1516 x 1684 km, 47.2° (Epoch: 28 November)

Event Time Altitude Azimuth Distance (km) Brightness Sun altitude
Exits shadow 09:57:55 21° 272° (W) 2,889 9.8 -16.3°
Maximum altitude 10:02:19 31° 231° (SW) 2,414 9.6 -15.4°
Drops below altitude 10° 10:10:04 10° 174° (S) 3,689 11.0 -13.8°
Sets 10:13:36 0° 164° (SSE) 4,687 11.7 -13.1°
